Cut Bank, MT

8:42 PM MDT on October 18, 2019 (GMT -0600)
Cut Bank Municipal

Weather History for KCTB - August, 2019

Change the Weather History Date:

Saturday, August 3, 2019

  Actual Average Record
Temperature  
Mean Temperature 69 °F 66 °F  
Max Temperature 84 °F 82 °F 98 °F (1914)
Min Temperature 53 °F 51 °F 37 °F (1988)
Degree Days  
Heating Degree Days 0 2  
Month to date heating degree days 0 6  
Since 1 June heating degree days 315 325  
Since 1 July heating degree days 93 92  
Cooling Degree Days 4 3  
Month to date cooling degree days 22 9  
Year to date cooling degree days 75 98  
Since 1 June cooling degree days 75 96  
Growing Degree Days 19 (Base 50)    
Moisture  
Dew Point 40 °F    
Average Humidity 33    
Maximum Humidity 56    
Minimum Humidity 16    
Precipitation  
Precipitation 0.00 in 0.04 in 1.10 in (1936)
Month to date precipitation 0.01 0.11  
Year to date precipitation 7.42 7.58  
Snow  
Snow - - - ()
Snow Depth 0.00 in    
Sea Level Pressure  
Sea Level Pressure 29.97 in    
Wind  
Wind Speed 12 mph ()    
Max Wind Speed 25 mph    
Max Gust Speed 35 mph    
Visibility 10.0 miles    
Events      
T = Trace of Precipitation, MM = Missing Value Source: Averaged Metar Reports

Daily Weather History Graph

Daily Weather History Graph

Search for Another Location

Airport or City:

Astronomy

Aug. 03, 2019 Rise Set
Actual Time 6:06 AM MDT 9:04 PM MDT
Civil Twilight 5:29 AM MDT 9:40 PM MDT
Nautical Twilight 4:41 AM MDT 10:28 PM MDT
Astronomical Twilight 3:43 AM MDT 11:25 PM MDT
Moon 9:15 AM MDT (8/3) 10:56 PM MDT (8/3)
Length of Visible Light 16h 11m
Length of Day
14h 58m
Waxing Crescent, 10% of the Moon is Illuminated
Aug 3
Waxing Crescent
Aug 7
First Quarter
Aug 15
Full
Aug 23
Last Quarter
Aug 30
New

Hourly Weather History & Observations

Time (MDT) Temp. Dew Point Humidity Pressure Visibility Wind Dir Wind Speed Gust Speed Precip Events Conditions
12:56 AM 69.1 °F 46.0 °F 44% 29.94 in 10.0 mi SW 17.3 mph 25.3 mph N/A   Clear
1:56 AM 68.0 °F 45.0 °F 43% 29.95 in 10.0 mi WSW 15.0 mph - N/A   Clear
2:56 AM 66.0 °F 46.0 °F 48% 29.94 in 10.0 mi West 16.1 mph - N/A   Clear
3:56 AM 62.1 °F 46.0 °F 56% 29.95 in 10.0 mi WSW 9.2 mph - N/A   Clear
4:56 AM 64.0 °F 46.0 °F 52% 29.94 in 10.0 mi WSW 11.5 mph - N/A   Clear
5:56 AM 63.0 °F 45.0 °F 52% 29.96 in 10.0 mi WSW 11.5 mph - N/A   Clear
6:56 AM 64.9 °F 45.0 °F 48% 29.98 in 10.0 mi WSW 10.4 mph - N/A   Clear
7:56 AM 68.0 °F 45.0 °F 43% 29.99 in 10.0 mi WNW 10.4 mph 16.1 mph N/A   Clear
8:56 AM 71.1 °F 45.0 °F 39% 29.99 in 10.0 mi WSW 10.4 mph - N/A   Clear
9:56 AM 75.0 °F 44.1 °F 33% 29.99 in 10.0 mi WSW 19.6 mph - N/A   Clear
10:56 AM 78.1 °F 42.1 °F 28% 29.98 in 10.0 mi West 15.0 mph 25.3 mph N/A   Partly Cloudy
11:56 AM 80.1 °F 37.0 °F 21% 29.98 in 10.0 mi West 15.0 mph 19.6 mph N/A   Clear
12:56 PM 81.0 °F 41.0 °F 24% 29.96 in 10.0 mi West 16.1 mph 26.5 mph N/A   Clear
1:56 PM 82.0 °F 37.9 °F 21% 29.96 in 10.0 mi SW 25.3 mph - N/A   Clear
2:56 PM 84.0 °F 37.0 °F 19% 29.96 in 10.0 mi WSW 17.3 mph 31.1 mph N/A   Clear
3:56 PM 82.9 °F 36.0 °F 19% 29.96 in 10.0 mi WSW 17.3 mph 28.8 mph N/A   Clear
4:56 PM 84.0 °F 34.0 °F 17% 29.94 in 10.0 mi WSW 18.4 mph 27.6 mph N/A   Clear
5:56 PM 82.9 °F 33.1 °F 17% 29.94 in 10.0 mi SW 10.4 mph 21.9 mph N/A   Clear
6:56 PM 82.0 °F 32.0 °F 16% 29.94 in 10.0 mi WNW 10.4 mph - N/A   Clear
7:56 PM 78.1 °F 34.0 °F 20% 29.96 in 10.0 mi West 10.4 mph - N/A   Clear
8:56 PM 72.0 °F 36.0 °F 27% 29.97 in 10.0 mi WNW 4.6 mph - N/A   Clear
9:56 PM 64.0 °F 36.0 °F 35% 29.99 in 10.0 mi WNW 10.4 mph - N/A   Clear
10:56 PM 59.0 °F 36.0 °F 42% 30.01 in 10.0 mi NW 11.5 mph - N/A   Clear
11:56 PM 57.9 °F 32.0 °F 37% 30.01 in 10.0 mi North 5.8 mph - N/A   Clear